Tracking 27086 objects as of 22-Mar-2023
HD Live streaming from Space Station
objects crossing your sky now

GALAXY 36

Track GALAXY 36 now!
GALAXY 36 is classified as:


NORAD ID: 54742
Int'l Code: 2022-170B
Perigee: 35,782.9 km
Apogee: 35,805.0 km
Inclination: 0.0 °
Period: 1,436.1 minutes
Semi major axis: 42164 km
RCS: Unknown
Launch date: December 13, 2022
Source: United States (US)
Launch site: FRENCH GUIANA (FRGUI)
Your satellite tracking list
Your tracking list is empty




NASA's NSSDC Master Catalog

Two Line Element Set (TLE):
1 54742U 22170B   23081.48953860 -.00000200  00000-0  00000+0 0  9993
2 54742   0.0192 169.4805 0002627 252.0361 205.4142  1.00271015  1056
Source of the keplerian elements: AFSPC